Retour au catalogue

ATLAS 5 CENTAUR DEB

ActifHEO
NORAD 43996·DEBRIS·🇺🇸 United States

Lancé Sep 17, 2014 depuis Cape Canaveral Space Force Station

Loading…

Prochains Passages (prochaines 24 heures)

TLE

FraisSource: Space-Track

Époque: Sep 13, 2026, 10:18 UTC

1 43996U 14055BB  26256.42928700 -.00000077  00000-0  00000+0 0  9993
2 43996  19.8532 148.9139 4806198 155.8226 237.3216  1.81740449 52639

Suivez ATLAS 5 CENTAUR DEB en temps réel avec AllMySat

Download on the App Store